Location: ???????
(55.4362°N, 38.1183°E)
Time: 20:10:39
(UTC+00:00)

SEEDS - Visible Passes

Search period start: 05 December 2021 00:00
Search period end: 15 December 2021 00:00
Orbit: 582 x 603 km, 97.6° (Epoch: 05 December)

Date Brightness Start Highest point End Pass type
(mag) Time Alt. Az. Time Alt. Az. Time Alt. Az.
05 Dec ? 01:15:23 10° NE 01:15:44 12° NE 01:15:44 12° NE visible
05 Dec ? 02:50:38 10° N 02:52:18 23° N 02:52:18 23° N visible
05 Dec ? 13:49:01 10° SSW 13:52:39 29° W 13:56:18 10° NNW visible
06 Dec ? 01:24:04 10° NNE 01:24:29 12° NE 01:24:29 12° NE visible
06 Dec ? 02:59:31 10° N 03:01:04 21° N 03:01:04 21° N visible
06 Dec ? 13:58:09 10° SSW 14:01:33 24° W 14:04:59 10° NW visible
07 Dec ? 01:32:47 10° NNE 01:33:15 13° NNE 01:33:15 13° NNE visible
07 Dec ? 03:08:26 10° N 03:09:50 19° N 03:09:50 19° N visible
07 Dec ? 14:07:20 10° SW 14:10:28 20° W 14:13:37 10° NW visible
08 Dec ? 01:41:32 10° NNE 01:42:01 13° NNE 01:42:01 13° NNE visible
08 Dec ? 03:17:21 10° N 03:18:36 17° NNW 03:18:36 17° NNW visible
08 Dec ? 14:16:36 10° SW 14:19:24 17° W 14:22:12 10° NW visible
09 Dec ? 01:50:18 10° NNE 01:50:48 13° NNE 01:50:48 13° NNE visible
09 Dec ? 03:26:18 10° N 03:27:23 16° NNW 03:27:23 16° NNW visible
09 Dec ? 14:25:59 10° WSW 14:28:20 15° W 14:30:41 10° NW visible
10 Dec ? 01:59:05 10° NNE 01:59:35 13° NNE 01:59:35 13° NNE visible
10 Dec ? 03:35:15 10° N 03:36:11 14° NNW 03:36:11 14° NNW visible
10 Dec ? 14:35:33 10° WSW 14:37:16 12° W 14:38:59 10° WNW visible
11 Dec ? 02:07:52 10° NNE 02:08:23 13° NNE 02:08:23 13° NNE visible
11 Dec ? 03:44:14 10° N 03:44:58 13° NNW 03:44:58 13° NNW visible
11 Dec ? 14:45:55 10° W 14:46:14 10° W 14:46:32 10° WNW visible
12 Dec ? 02:16:41 10° NNE 02:17:11 13° NNE 02:17:11 13° NNE visible
12 Dec ? 03:53:16 10° NNW 03:53:46 12° NNW 03:53:46 12° NNW visible
13 Dec ? 02:25:31 10° NNE 02:26:00 13° NNE 02:26:00 13° NNE visible
13 Dec ? 04:02:19 10° NNW 04:02:35 11° NNW 04:02:35 11° NNW visible
14 Dec ? 02:34:21 10° N 02:34:49 13° N 02:34:49 13° N visible
